SCP
0 -0 0 0 0 0 -0 0 0 0 0 0 0 0 -0 -0 -0 0 -0 -0 -0 -0 -0 -0 -0 -0 -0 -0 -0 -0 0 0 -0 -0 -0 -0 -0 -0 -0 -0 0 0 0 0 0 0 0 0 0
0 0 0 0 0 -0 -0 0 0 0 0 0 0 -0 -0 -0 -0 -0 -0 -0 -0 -0 -0 -0 -0 -0 -0 -0 -0 -0 -0 -0 -0 -0 -0 -0 -0 -0 -0 -0 -0 0 0 0 0 0 0 0 0
0 0 0 0 0 -0 -0 0 0 0 0 -0 0 -0 0 -0 -0 0 -0 -0 -0 -0 -0 -0 -0 -0 -0 -0 -0 -0 -0 -0 -0 -0 -0 -0 -0 -0 -0 0 0 0 0 0 0 0 0 0 0
0 0 0 0 0 -0 0 0 0 0 0 0 -0 -0 -0 0 0 0 -0 -0 -0 -0 -0 -0 -0 -0 -0 -0 -0 -0 -0 -0 -0 -0 -0 0 0 0 0 0 0 0 0 0 0 0 0 0 0
0 0 0 0 0 -0 0 0 0 0 0 0 0 -0 -0 -0 -0 -0 -0 -0 -0 -0 -0 -0 -0 -0 -0 -0 0 0 0 0 0 0 0 0 0 0 0 0 0 0 0 0 0 0 0 0 0
0 0 0 0 0 -0 0 0 0 0 0 0 0 -0 0 -0 -0 -0 -0 -0 -0 -0 -0 -0 0 0 0 0 0 0 0 0 0 0 0 0 0 0 0 0 0 0 0 0 0 0 0 0 0
0 0 0 0 -0 0 0 0 0 0 0 0 0 0 0 -0 0 -0 0 0 0 -0 0 0 0 0 0 0 0 0 0 0 0 0 0 0 0 0 0 0 0 0 1 0 0 0 0 0 0
0 0 0 0 0 0 0 0 0 0 0 0 0 0 0 0 0 0 0 0 0 0 0 0 0 0 0 0 0 0 0 0 0 0 0 0 0 0 0 0 0 0 0 0 1 0 0 0 0
0 0 0 0 0 -0 0 0 0 0 0 0 0 0 -0 0 0 -0 0 -0 0 0 0 -0 -0 0 0 0 0 0 0 0 0 0 0 0 -0 0 0 0 0 0 0 0 0 0 0 0 0
0 0 0 0 0 0 0 0 0 0 0 0 0 0 0 0 0 0 0 0 0 0 0 0 -0 0 0 0 0 0 0 0 0 0 0 0 0 1 0 1 0 0 0 0 0 0 0 0 0
0 0 0 0 0 0 0 0 0 0 0 0 0 0 0 0 0 0 0 0 0 0 0 0 1 0 0 0 0 0 0 0 0 0 0 1 0 0 0 1 0 0 0 0 0 0 0 0 0
0 0 0 0 0 0 0 0 0 0 0 0 0 0 0 0 0 -0 0 0 0 0 0 0 0 0 0 0 0 0 0 0 0 0 0 0 0 0 0 0 0 1 1 1 0 0 0 0 0
0 0 0 0 0 0 0 0 0 0 0 0 0 0 0 0 0 0 0 0 0 0 0 0 0 0 0 0 0 0 0 0 0 0 0 0 0 0 0 0 0 0 0 0 0 0 0 0 0
0 0 0 0 0 0 0 0 0 0 0 0 0 0 0 0 0 0 0 0 0 0 0 0 0 0 0 0 0 0 0 0 0 0 0 0 0 0 0 0 0 0 0 0 0 0 0 0 0
0 0 0 0 0 0 0 0 0 0 0 0 0 0 0 0 0 0 0 0 0 0 0 0 0 0 0 0 0 0 0 0 0 0 0 0 0 0 0 0 0 0 0 0 0 0 0 0 0
0 0 0 0 0 0 0 0 0 0 0 0 0 0 0 0 0 0 0 0 0 0 0 0 0 0 0 0 0 0 0 0 0 0 0 0 0 0 0 0 0 0 0 0 0 0 0 0 0
0 0 0 0 0 0 0 0 0 0 0 0 0 0 0 0 0 0 0 0 0 0 0 0 0 0 0 0 0 0 0 0 0 0 0 0 0 0 0 0 0 0 0 0 0 0 0 0 0
0 0 0 0 0 0 0 0 0 0 0 0 0 0 0 0 0 0 0 0 0 0 0 0 0 0 0 0 0 0 0 0 0 0 0 0 0 0 0 0 0 0 0 0 0 0 0 0 0
0 0 0 0 0 0 0 0 0 0 0 0 0 0 0 0 0 0 0 0 0 0 0 0 0 0 0 0 0 0 0 0 0 0 0 0 0 0 0 0 0 0 0 0 0 0 0 0 0
0 0 0 0 0 0 0 0 0 0 0 0 0 0 0 0 0 0 0 0 0 0 0 0 0 0 0 0 0 0 0 0 0 0 0 0 -0 -0 -0 0 0 0 0 0 0 0 0 0 0
0 0 0 0 0 0 0 0 0 0 0 0 0 0 0 0 0 0 0 0 0 0 0 0 0 0 0 0 0 0 0 0 0 0 -0 0 0 -0 0 0 0 0 0 0 0 0 0 0 0
0 0 0 0 0 0 0 0 0 0 0 0 0 0 0 0 0 0 0 0 0 0 0 0 0 0 0 0 0 0 0 0 0 0 0 0 -0 0 0 0 0 0 0 0 0 0 0 0 0
0 0 0 0 0 0 0 0 0 0 0 0 0 0 0 0 0 0 0 0 0 0 0 0 0 0 0 0 0 0 0 0 0 0 0 0 -0 -0 0 0 0 0 0 0 0 0 0 0 0
0 0 0 0 0 0 0 0 0 0 0 0 0 0 0 0 0 0 0 0 0 0 0 0 0 0 0 0 0 0 0 0 0 0 0 0 0 0 0 0 0 0 0 0 0 0 0 0 0
0 0 0 0 0 0 0 0 0 0 0 0 0 0 0 0 0 0 0 0 0 0 0 0 0 0 0 0 0 0 0 0 0 0 0 0 0 0 0 0 0 0 0 0 0 0 0 0 0
0 0 0 0 0 0 0 0 0 0 0 0 0 0 0 0 0 0 0 0 0 0 0 0 0 0 0 0 0 0 0 0 0 0 0 0 0 0 0 0 0 0 0 0 0 0 0 0 0
0 0 0 0 0 0 0 0 0 0 0 0 0 0 0 0 0 0 0 0 0 0 0 0 0 0 0 0 0 0 0 0 0 0 0 0 0 0 0 0 0 0 0 0 0 0 0 0 0
0 0 0 0 0 0 0 0 0 0 0 0 0 0 0 0 0 0 0 0 0 0 0 0 0 0 0 0 0 0 0 0 0 0 0 0 0 0 0 0 0 0 0 0 0 0 0 0 0
0 0 0 0 0 0 0 0 0 0 0 0 0 0 0 0 0 0 0 0 0 0 0 0 0 0 0 0 0 0 0 0 0 0 0 0 0 0 0 0 0 0 0 0 0 0 0 0 0
0 0 0 0 0 0 0 0 0 0 0 0 0 0 0 0 0 0 0 0 0 0 0 0 -0 0 0 0 0 0 0 0 0 0 0 0 0 0 0 0 0 0 0 0 0 0 0 0 0
Wind_Speed_500mb
14 14 10 18 15 15 33 12 23 19 17 17 24 13 36 36 27 14 22 18 24 26 25 22 20 21 21 21 21 20 18 16 16 17 17 15 14 13 10 7 6 8 10 11 12 12 12 12 13
5 12 14 24 18 27 25 26 18 21 28 25 23 22 31 31 34 31 23 26 29 27 27 22 21 21 22 20 18 17 17 16 16 15 13 12 12 11 10 7 4 3 6 9 8 7 6 6 7
8 16 24 15 26 32 20 21 26 27 28 34 15 30 16 21 20 17 27 31 32 30 26 23 21 21 20 19 18 17 16 16 15 14 13 11 10 10 11 9 6 5 5 6 7 4 2 1 2
6 15 25 22 36 38 13 20 33 31 33 21 28 24 23 11 12 22 29 31 31 27 27 25 23 20 19 18 16 15 15 15 16 16 15 14 13 13 12 11 8 6 6 7 7 6 6 5 6
17 26 25 31 40 38 11 4 31 27 24 29 30 22 25 20 32 28 31 30 29 26 26 25 21 18 17 16 16 14 13 13 14 15 16 16 17 17 17 16 13 10 9 9 11 11 12 11 11
26 25 27 32 40 41 12 22 28 26 25 28 27 38 22 30 30 28 30 29 27 25 30 25 22 19 16 14 13 12 11 10 10 11 12 14 16 18 19 19 18 15 13 13 14 16 18 19 20
36 26 34 41 38 31 16 27 29 24 27 26 32 24 30 34 31 30 29 27 24 24 22 23 19 17 15 15 13 12 10 9 7 6 6 8 10 13 17 20 20 20 19 19 20 21 22 23 25
41 27 44 37 38 36 33 31 33 31 28 28 21 21 35 36 33 32 27 25 25 23 18 22 16 17 8 14 11 9 9 9 7 6 6 6 6 8 13 16 20 25 26 27 28 28 28 29 28
28 27 31 41 41 38 40 28 33 12 33 22 11 12 45 38 35 31 34 23 26 24 17 24 24 17 18 14 11 6 6 6 6 8 8 4 7 16 18 19 22 25 28 31 33 35 37 37 36
39 27 44 38 27 38 33 36 31 22 31 24 23 33 41 38 35 32 26 30 25 22 21 22 15 15 13 12 9 11 11 10 7 4 5 2 12 18 20 24 28 29 29 31 31 34 39 43 40
47 40 40 35 19 34 25 37 36 41 31 36 40 42 43 38 33 31 28 26 27 25 25 24 22 22 15 12 13 7 5 4 0 2 2 7 6 16 12 13 14 16 26 24 26 28 29 22 27
44 47 51 24 11 32 31 36 42 44 32 37 36 40 41 39 35 30 26 24 28 26 27 27 28 28 26 12 9 6 3 2 2 8 5 11 4 14 10 11 19 25 20 24 21 25 28 32 36
46 36 41 28 23 32 45 39 28 43 19 27 40 40 38 36 32 26 25 25 26 32 31 30 25 24 18 14 8 8 3 5 4 2 11 10 10 20 15 20 18 19 21 24 24 28 29 34 34
34 42 41 32 31 35 35 36 39 39 29 29 42 42 37 35 34 31 29 29 33 33 32 27 21 14 11 13 11 9 10 3 5 2 7 12 7 20 14 15 16 18 20 24 26 26 29 34 33
42 30 34 33 36 24 34 34 33 32 31 35 41 40 37 35 34 33 31 33 36 36 31 25 20 19 16 16 16 14 11 9 7 2 5 7 11 20 19 15 18 18 21 27 28 28 29 32 33
28 35 37 42 35 35 35 42 37 39 33 41 42 42 40 40 39 34 33 36 38 36 34 29 22 21 22 22 19 13 14 8 5 2 2 12 15 22 22 17 17 20 28 25 26 27 28 31 33
32 36 48 43 43 31 33 32 40 55 42 41 44 43 42 42 42 39 37 39 42 40 36 33 30 26 29 28 18 15 11 7 3 1 4 16 15 17 24 19 19 29 27 23 25 27 28 31 33
35 40 41 43 37 35 37 39 37 39 51 47 46 46 45 46 47 45 42 42 42 42 39 36 33 34 32 28 18 10 6 4 2 3 8 20 17 21 25 24 28 31 24 23 25 36 30 32 33
43 39 42 40 35 38 40 41 43 45 34 34 46 46 50 49 47 48 48 46 45 45 44 43 42 45 39 25 13 12 7 10 6 7 19 21 20 23 27 24 24 25 24 27 34 32 31 31 29
44 42 41 34 34 16 28 40 43 42 43 50 49 49 52 53 51 55 55 54 54 52 49 48 47 47 44 26 22 20 19 10 12 13 23 26 24 30 27 30 29 28 28 31 32 32 32 31 28
34 39 40 35 28 20 29 43 43 40 49 50 52 51 54 55 58 58 61 61 58 56 56 54 55 52 49 30 30 25 21 13 9 10 14 20 36 32 33 33 33 33 31 26 29 30 31 33 31
37 38 34 38 35 29 38 36 47 49 47 45 48 50 53 54 58 60 62 63 63 62 56 53 54 55 53 45 27 27 19 17 17 20 16 34 29 34 33 36 35 35 31 29 30 29 31 32 35
32 30 34 37 29 36 42 29 30 24 52 46 44 55 53 55 59 62 62 65 64 60 59 54 54 51 47 49 37 32 25 18 13 16 26 32 28 28 28 32 38 40 37 30 35 38 36 34 38
16 19 24 26 30 33 47 41 29 30 39 37 35 48 55 58 59 62 62 63 68 62 60 54 55 54 51 52 47 41 36 34 26 25 35 24 23 27 25 27 41 45 44 38 35 34 35 38 40
26 24 20 25 27 37 41 41 32 7 9 10 24 21 15 24 33 38 47 53 63 62 64 62 57 53 50 53 48 46 43 40 37 37 24 30 31 30 30 44 47 44 44 45 43 39 40 41 41
40 35 23 32 28 34 45 34 31 22 27 20 14 19 11 19 31 35 39 47 59 61 62 62 57 51 48 47 48 46 42 33 26 28 31 39 40 41 44 51 50 49 47 46 43 39 41 41 42
44 29 40 42 37 27 19 28 19 7 10 12 21 20 18 9 10 21 29 39 47 57 59 60 56 48 48 45 42 40 38 39 36 42 48 42 43 43 43 47 51 50 49 46 45 44 46 47 49
37 34 26 18 32 40 35 38 20 38 33 32 31 22 15 7 7 8 15 24 36 44 51 54 54 48 49 42 38 35 37 38 42 46 47 49 54 56 54 50 48 47 46 45 46 48 44 47 51
32 31 29 25 29 32 30 31 38 29 22 20 19 26 13 7 7 9 14 21 31 39 47 50 49 48 44 43 39 37 36 36 40 43 47 50 53 56 52 46 44 46 46 46 50 54 58 57 56
39 47 45 26 42 30 30 29 18 10 5 7 21 16 8 6 8 13 18 25 31 37 42 44 47 45 44 40 39 37 35 35 37 42 45 50 56 54 53 47 47 48 49 50 53 55 57 57 56
Wind_Direction_500mb
275 310 294 268 247 228 259 147 72 112 121 91 96 58 63 44 21 68 121 130 138 138 144 144 133 131 132 137 149 158 159 152 150 149 150 154 157 159 157 138 125 117 116 126 125 116 101 83 62
240 257 259 270 253 240 231 112 185 158 111 119 109 114 90 72 80 108 110 129 141 133 129 141 130 132 138 141 146 158 163 162 160 159 162 167 173 179 180 180 182 169 145 143 144 133 111 84 51
214 229 264 234 241 257 254 147 113 101 135 139 105 85 80 101 73 108 126 138 138 131 139 136 128 126 132 142 151 159 168 171 173 180 183 189 199 206 208 207 207 215 206 184 174 185 210 268 4
210 220 248 254 247 238 345 114 116 149 151 157 132 96 96 91 100 121 130 139 132 139 137 141 136 130 127 130 139 153 168 181 192 199 204 210 215 221 226 229 239 252 237 228 230 234 246 278 302
221 256 246 235 246 263 103 72 152 153 157 151 147 115 105 107 116 123 132 135 139 142 140 143 140 136 134 133 132 136 148 170 188 201 211 218 223 225 228 233 237 250 257 252 256 265 274 280 287
226 246 245 239 231 247 166 164 187 175 153 127 121 124 106 131 131 129 132 137 143 144 146 149 150 150 150 149 149 149 148 151 163 183 197 209 219 227 232 235 240 247 257 262 262 267 274 281 287
243 234 247 257 252 214 176 190 199 155 160 166 137 125 132 141 140 138 137 141 142 141 140 141 155 156 158 161 165 171 174 175 176 182 194 213 228 232 234 236 239 245 251 258 263 266 271 277 283
244 253 267 253 263 252 158 195 206 161 171 123 154 143 156 144 146 146 145 146 145 148 141 140 144 139 136 175 178 191 200 201 203 212 231 244 254 265 258 255 252 254 255 259 264 269 272 275 279
237 255 249 246 242 269 140 193 189 142 135 156 153 115 144 153 154 158 151 161 161 157 158 156 146 137 145 127 133 169 200 216 234 238 242 256 352 313 317 289 270 263 260 262 265 269 274 276 279
230 231 246 255 260 239 155 203 182 173 164 152 150 127 143 154 162 164 165 163 168 176 164 148 145 129 140 147 83 103 73 89 82 43 310 183 207 226 210 259 286 279 270 268 273 277 278 277 283
224 242 259 277 288 291 159 206 182 207 180 174 162 154 155 161 168 172 182 172 180 179 179 177 164 154 163 161 138 131 111 113 22 142 139 302 298 310 308 275 303 308 295 295 289 302 302 285 274
231 245 249 283 276 254 259 209 177 215 200 181 171 166 162 170 176 185 176 174 164 172 178 166 160 152 155 144 154 155 187 192 158 259 277 304 351 270 272 281 284 290 277 263 269 263 270 269 271
237 243 244 237 257 236 241 204 189 217 151 160 165 171 172 177 181 180 177 177 180 174 172 167 157 171 171 151 172 188 164 147 224 107 308 277 278 273 280 263 275 273 289 291 285 273 262 253 259
237 243 253 243 233 230 238 210 197 203 166 177 168 179 181 180 182 178 180 180 176 176 172 169 167 190 186 200 202 181 161 149 124 101 317 336 322 304 305 294 296 281 285 278 273 274 270 271 271
247 268 238 245 231 212 233 213 189 189 179 185 182 189 188 186 185 183 183 180 179 178 177 172 175 192 203 182 164 158 129 148 134 158 11 341 328 315 312 303 301 299 290 286 289 288 281 279 276
240 240 246 221 220 213 203 222 182 191 185 195 196 195 194 190 190 189 186 183 180 178 179 173 177 187 181 179 154 154 156 147 146 127 357 332 336 323 324 314 301 289 281 299 290 286 282 276 273
218 233 229 240 197 208 207 233 203 208 187 210 201 205 200 198 198 192 190 186 182 180 179 175 178 173 179 174 164 161 171 145 185 352 325 299 332 316 318 317 302 296 302 296 288 285 282 281 275
221 224 245 223 191 208 219 234 248 208 185 209 218 210 209 209 203 197 194 190 187 185 183 180 180 188 179 184 176 178 200 205 235 293 283 313 313 314 316 314 309 310 303 293 281 265 275 276 279
261 237 228 251 216 205 232 231 230 244 214 229 219 223 214 215 210 204 200 196 193 191 190 188 186 201 192 188 181 203 211 232 255 290 293 318 312 317 320 322 313 310 301 285 275 286 289 286 284
244 257 257 236 224 222 245 241 243 236 222 215 227 226 222 213 214 206 201 201 200 197 196 195 197 205 196 191 186 193 202 230 241 267 313 325 329 324 324 318 316 308 298 290 285 283 281 281 279
236 239 239 246 223 223 247 256 246 235 239 235 235 230 229 219 213 210 203 206 204 203 202 200 201 207 200 189 207 220 244 270 321 289 320 282 313 319 320 320 320 317 311 296 286 280 276 280 276
239 223 244 248 230 224 209 250 231 232 227 226 222 229 225 218 213 213 212 209 209 209 207 203 201 207 204 207 207 209 214 228 243 273 280 297 320 312 320 319 319 318 311 292 282 285 277 273 277
242 262 212 239 237 242 252 233 259 249 212 220 218 224 222 219 216 219 220 218 215 213 210 206 204 202 201 213 204 230 232 238 259 269 286 308 329 316 308 309 311 315 314 295 282 279 272 266 268
250 239 249 244 240 234 236 240 236 241 209 203 214 216 223 225 226 226 226 224 210 214 214 211 206 204 201 214 219 229 226 242 258 274 290 309 298 304 301 296 302 306 304 301 293 284 278 274 266
232 227 229 224 226 235 235 237 243 262 354 202 202 188 195 227 237 239 235 228 210 210 214 212 208 208 205 213 225 235 244 254 271 288 289 290 301 301 294 290 298 298 294 293 290 284 277 274 269
203 228 218 233 236 239 218 232 240 261 157 166 165 191 206 233 240 234 229 226 222 212 213 211 207 210 211 213 225 235 246 255 264 277 280 285 294 302 300 299 300 299 296 294 291 284 280 276 276
244 209 246 263 274 274 265 194 223 156 238 181 190 216 219 215 241 236 237 231 221 210 204 207 208 212 213 216 222 231 243 254 252 263 278 291 298 301 296 287 288 290 290 289 285 279 277 276 273
239 264 226 233 252 251 249 255 211 185 189 188 205 194 164 189 196 213 215 208 207 198 196 203 205 213 212 214 219 228 241 254 265 275 283 291 299 302 299 293 290 288 287 286 280 278 274 271 271
221 240 248 252 227 243 253 249 241 185 170 176 192 178 167 187 156 157 174 182 185 188 190 196 204 208 212 215 219 231 237 249 263 273 283 290 296 298 293 287 283 283 282 280 278 278 278 273 264
234 253 226 231 240 250 258 252 113 66 127 166 177 158 256 204 174 157 156 166 176 182 189 197 203 209 215 219 225 235 244 251 260 273 282 288 293 292 290 283 280 279 278 275 273 274 275 270 269
Wind_Speed_850mb
14 14 10 18 15 15 33 12 23 19 17 17 24 13 36 36 27 14 22 18 24 26 25 22 20 21 21 21 21 20 18 16 16 17 17 15 14 13 10 7 6 8 10 11 12 12 12 12 13
5 12 14 24 18 27 25 26 18 21 28 25 23 22 31 31 34 31 23 26 29 27 27 22 21 21 22 20 18 17 17 16 16 15 13 12 12 11 10 7 4 3 6 9 8 7 6 6 7
8 16 24 15 26 32 20 21 26 27 28 34 15 30 16 21 20 17 27 31 32 30 26 23 21 21 20 19 18 17 16 16 15 14 13 11 10 10 11 9 6 5 5 6 7 4 2 1 2
6 15 25 22 36 38 13 20 33 31 33 21 28 24 23 11 12 22 29 31 31 27 27 25 23 20 19 18 16 15 15 15 16 16 15 14 13 13 12 11 8 6 6 7 7 6 6 5 6
17 26 25 31 40 38 11 4 31 27 24 29 30 22 25 20 32 28 31 30 29 26 26 25 21 18 17 16 16 14 13 13 14 15 16 16 17 17 17 16 13 10 9 9 11 11 12 11 11
26 25 27 32 40 41 12 22 28 26 25 28 27 38 22 30 30 28 30 29 27 25 30 25 22 19 16 14 13 12 11 10 10 11 12 14 16 18 19 19 18 15 13 13 14 16 18 19 20
36 26 34 41 38 31 16 27 29 24 27 26 32 24 30 34 31 30 29 27 24 24 22 23 19 17 15 15 13 12 10 9 7 6 6 8 10 13 17 20 20 20 19 19 20 21 22 23 25
41 27 44 37 38 36 33 31 33 31 28 28 21 21 35 36 33 32 27 25 25 23 18 22 16 17 8 14 11 9 9 9 7 6 6 6 6 8 13 16 20 25 26 27 28 28 28 29 28
28 27 31 41 41 38 40 28 33 12 33 22 11 12 45 38 35 31 34 23 26 24 17 24 24 17 18 14 11 6 6 6 6 8 8 4 7 16 18 19 22 25 28 31 33 35 37 37 36
39 27 44 38 27 38 33 36 31 22 31 24 23 33 41 38 35 32 26 30 25 22 21 22 15 15 13 12 9 11 11 10 7 4 5 2 12 18 20 24 28 29 29 31 31 34 39 43 40
47 40 40 35 19 34 25 37 36 41 31 36 40 42 43 38 33 31 28 26 27 25 25 24 22 22 15 12 13 7 5 4 0 2 2 7 6 16 12 13 14 16 26 24 26 28 29 22 27
44 47 51 24 11 32 31 36 42 44 32 37 36 40 41 39 35 30 26 24 28 26 27 27 28 28 26 12 9 6 3 2 2 8 5 11 4 14 10 11 19 25 20 24 21 25 28 32 36
46 36 41 28 23 32 45 39 28 43 19 27 40 40 38 36 32 26 25 25 26 32 31 30 25 24 18 14 8 8 3 5 4 2 11 10 10 20 15 20 18 19 21 24 24 28 29 34 34
34 42 41 32 31 35 35 36 39 39 29 29 42 42 37 35 34 31 29 29 33 33 32 27 21 14 11 13 11 9 10 3 5 2 7 12 7 20 14 15 16 18 20 24 26 26 29 34 33
42 30 34 33 36 24 34 34 33 32 31 35 41 40 37 35 34 33 31 33 36 36 31 25 20 19 16 16 16 14 11 9 7 2 5 7 11 20 19 15 18 18 21 27 28 28 29 32 33
28 35 37 42 35 35 35 42 37 39 33 41 42 42 40 40 39 34 33 36 38 36 34 29 22 21 22 22 19 13 14 8 5 2 2 12 15 22 22 17 17 20 28 25 26 27 28 31 33
32 36 48 43 43 31 33 32 40 55 42 41 44 43 42 42 42 39 37 39 42 40 36 33 30 26 29 28 18 15 11 7 3 1 4 16 15 17 24 19 19 29 27 23 25 27 28 31 33
35 40 41 43 37 35 37 39 37 39 51 47 46 46 45 46 47 45 42 42 42 42 39 36 33 34 32 28 18 10 6 4 2 3 8 20 17 21 25 24 28 31 24 23 25 36 30 32 33
43 39 42 40 35 38 40 41 43 45 34 34 46 46 50 49 47 48 48 46 45 45 44 43 42 45 39 25 13 12 7 10 6 7 19 21 20 23 27 24 24 25 24 27 34 32 31 31 29
44 42 41 34 34 16 28 40 43 42 43 50 49 49 52 53 51 55 55 54 54 52 49 48 47 47 44 26 22 20 19 10 12 13 23 26 24 30 27 30 29 28 28 31 32 32 32 31 28
34 39 40 35 28 20 29 43 43 40 49 50 52 51 54 55 58 58 61 61 58 56 56 54 55 52 49 30 30 25 21 13 9 10 14 20 36 32 33 33 33 33 31 26 29 30 31 33 31
37 38 34 38 35 29 38 36 47 49 47 45 48 50 53 54 58 60 62 63 63 62 56 53 54 55 53 45 27 27 19 17 17 20 16 34 29 34 33 36 35 35 31 29 30 29 31 32 35
32 30 34 37 29 36 42 29 30 24 52 46 44 55 53 55 59 62 62 65 64 60 59 54 54 51 47 49 37 32 25 18 13 16 26 32 28 28 28 32 38 40 37 30 35 38 36 34 38
16 19 24 26 30 33 47 41 29 30 39 37 35 48 55 58 59 62 62 63 68 62 60 54 55 54 51 52 47 41 36 34 26 25 35 24 23 27 25 27 41 45 44 38 35 34 35 38 40
26 24 20 25 27 37 41 41 32 7 9 10 24 21 15 24 33 38 47 53 63 62 64 62 57 53 50 53 48 46 43 40 37 37 24 30 31 30 30 44 47 44 44 45 43 39 40 41 41
40 35 23 32 28 34 45 34 31 22 27 20 14 19 11 19 31 35 39 47 59 61 62 62 57 51 48 47 48 46 42 33 26 28 31 39 40 41 44 51 50 49 47 46 43 39 41 41 42
44 29 40 42 37 27 19 28 19 7 10 12 21 20 18 9 10 21 29 39 47 57 59 60 56 48 48 45 42 40 38 39 36 42 48 42 43 43 43 47 51 50 49 46 45 44 46 47 49
37 34 26 18 32 40 35 38 20 38 33 32 31 22 15 7 7 8 15 24 36 44 51 54 54 48 49 42 38 35 37 38 42 46 47 49 54 56 54 50 48 47 46 45 46 48 44 47 51
32 31 29 25 29 32 30 31 38 29 22 20 19 26 13 7 7 9 14 21 31 39 47 50 49 48 44 43 39 37 36 36 40 43 47 50 53 56 52 46 44 46 46 46 50 54 58 57 56
39 47 45 26 42 30 30 29 18 10 5 7 21 16 8 6 8 13 18 25 31 37 42 44 47 45 44 40 39 37 35 35 37 42 45 50 56 54 53 47 47 48 49 50 53 55 57 57 56
Wind_Direction_850mb
275 310 294 268 247 228 259 147 72 112 121 91 96 58 63 44 21 68 121 130 138 138 144 144 133 131 132 137 149 158 159 152 150 149 150 154 157 159 157 138 125 117 116 126 125 116 101 83 62
240 257 259 270 253 240 231 112 185 158 111 119 109 114 90 72 80 108 110 129 141 133 129 141 130 132 138 141 146 158 163 162 160 159 162 167 173 179 180 180 182 169 145 143 144 133 111 84 51
214 229 264 234 241 257 254 147 113 101 135 139 105 85 80 101 73 108 126 138 138 131 139 136 128 126 132 142 151 159 168 171 173 180 183 189 199 206 208 207 207 215 206 184 174 185 210 268 4
210 220 248 254 247 238 345 114 116 149 151 157 132 96 96 91 100 121 130 139 132 139 137 141 136 130 127 130 139 153 168 181 192 199 204 210 215 221 226 229 239 252 237 228 230 234 246 278 302
221 256 246 235 246 263 103 72 152 153 157 151 147 115 105 107 116 123 132 135 139 142 140 143 140 136 134 133 132 136 148 170 188 201 211 218 223 225 228 233 237 250 257 252 256 265 274 280 287
226 246 245 239 231 247 166 164 187 175 153 127 121 124 106 131 131 129 132 137 143 144 146 149 150 150 150 149 149 149 148 151 163 183 197 209 219 227 232 235 240 247 257 262 262 267 274 281 287
243 234 247 257 252 214 176 190 199 155 160 166 137 125 132 141 140 138 137 141 142 141 140 141 155 156 158 161 165 171 174 175 176 182 194 213 228 232 234 236 239 245 251 258 263 266 271 277 283
244 253 267 253 263 252 158 195 206 161 171 123 154 143 156 144 146 146 145 146 145 148 141 140 144 139 136 175 178 191 200 201 203 212 231 244 254 265 258 255 252 254 255 259 264 269 272 275 279
237 255 249 246 242 269 140 193 189 142 135 156 153 115 144 153 154 158 151 161 161 157 158 156 146 137 145 127 133 169 200 216 234 238 242 256 352 313 317 289 270 263 260 262 265 269 274 276 279
230 231 246 255 260 239 155 203 182 173 164 152 150 127 143 154 162 164 165 163 168 176 164 148 145 129 140 147 83 103 73 89 82 43 310 183 207 226 210 259 286 279 270 268 273 277 278 277 283
224 242 259 277 288 291 159 206 182 207 180 174 162 154 155 161 168 172 182 172 180 179 179 177 164 154 163 161 138 131 111 113 22 142 139 302 298 310 308 275 303 308 295 295 289 302 302 285 274
231 245 249 283 276 254 259 209 177 215 200 181 171 166 162 170 176 185 176 174 164 172 178 166 160 152 155 144 154 155 187 192 158 259 277 304 351 270 272 281 284 290 277 263 269 263 270 269 271
237 243 244 237 257 236 241 204 189 217 151 160 165 171 172 177 181 180 177 177 180 174 172 167 157 171 171 151 172 188 164 147 224 107 308 277 278 273 280 263 275 273 289 291 285 273 262 253 259
237 243 253 243 233 230 238 210 197 203 166 177 168 179 181 180 182 178 180 180 176 176 172 169 167 190 186 200 202 181 161 149 124 101 317 336 322 304 305 294 296 281 285 278 273 274 270 271 271
247 268 238 245 231 212 233 213 189 189 179 185 182 189 188 186 185 183 183 180 179 178 177 172 175 192 203 182 164 158 129 148 134 158 11 341 328 315 312 303 301 299 290 286 289 288 281 279 276
240 240 246 221 220 213 203 222 182 191 185 195 196 195 194 190 190 189 186 183 180 178 179 173 177 187 181 179 154 154 156 147 146 127 357 332 336 323 324 314 301 289 281 299 290 286 282 276 273
218 233 229 240 197 208 207 233 203 208 187 210 201 205 200 198 198 192 190 186 182 180 179 175 178 173 179 174 164 161 171 145 185 352 325 299 332 316 318 317 302 296 302 296 288 285 282 281 275
221 224 245 223 191 208 219 234 248 208 185 209 218 210 209 209 203 197 194 190 187 185 183 180 180 188 179 184 176 178 200 205 235 293 283 313 313 314 316 314 309 310 303 293 281 265 275 276 279
261 237 228 251 216 205 232 231 230 244 214 229 219 223 214 215 210 204 200 196 193 191 190 188 186 201 192 188 181 203 211 232 255 290 293 318 312 317 320 322 313 310 301 285 275 286 289 286 284
244 257 257 236 224 222 245 241 243 236 222 215 227 226 222 213 214 206 201 201 200 197 196 195 197 205 196 191 186 193 202 230 241 267 313 325 329 324 324 318 316 308 298 290 285 283 281 281 279
236 239 239 246 223 223 247 256 246 235 239 235 235 230 229 219 213 210 203 206 204 203 202 200 201 207 200 189 207 220 244 270 321 289 320 282 313 319 320 320 320 317 311 296 286 280 276 280 276
239 223 244 248 230 224 209 250 231 232 227 226 222 229 225 218 213 213 212 209 209 209 207 203 201 207 204 207 207 209 214 228 243 273 280 297 320 312 320 319 319 318 311 292 282 285 277 273 277
242 262 212 239 237 242 252 233 259 249 212 220 218 224 222 219 216 219 220 218 215 213 210 206 204 202 201 213 204 230 232 238 259 269 286 308 329 316 308 309 311 315 314 295 282 279 272 266 268
250 239 249 244 240 234 236 240 236 241 209 203 214 216 223 225 226 226 226 224 210 214 214 211 206 204 201 214 219 229 226 242 258 274 290 309 298 304 301 296 302 306 304 301 293 284 278 274 266
232 227 229 224 226 235 235 237 243 262 354 202 202 188 195 227 237 239 235 228 210 210 214 212 208 208 205 213 225 235 244 254 271 288 289 290 301 301 294 290 298 298 294 293 290 284 277 274 269
203 228 218 233 236 239 218 232 240 261 157 166 165 191 206 233 240 234 229 226 222 212 213 211 207 210 211 213 225 235 246 255 264 277 280 285 294 302 300 299 300 299 296 294 291 284 280 276 276
244 209 246 263 274 274 265 194 223 156 238 181 190 216 219 215 241 236 237 231 221 210 204 207 208 212 213 216 222 231 243 254 252 263 278 291 298 301 296 287 288 290 290 289 285 279 277 276 273
239 264 226 233 252 251 249 255 211 185 189 188 205 194 164 189 196 213 215 208 207 198 196 203 205 213 212 214 219 228 241 254 265 275 283 291 299 302 299 293 290 288 287 286 280 278 274 271 271
221 240 248 252 227 243 253 249 241 185 170 176 192 178 167 187 156 157 174 182 185 188 190 196 204 208 212 215 219 231 237 249 263 273 283 290 296 298 293 287 283 283 282 280 278 278 278 273 264
234 253 226 231 240 250 258 252 113 66 127 166 177 158 256 204 174 157 156 166 176 182 189 197 203 209 215 219 225 235 244 251 260 273 282 288 293 292 290 283 280 279 278 275 273 274 275 270 269